This is the latest recevied weather packets stored in our database for station/object DL9NEE-10. If no packets are shown the sender has not sent any weather packets the latest 1 day(s).
| Time | Temp. | Humidity | Pressure | Rain* | Wind** | Luminosity | Snow |
|---|---|---|---|---|---|---|---|
| 1777748934 | 25° C | 32% | 1017.9 hPa | - | - | - | - |
| 1777748034 | 26.67° C | 31% | 1017.8 hPa | - | - | - | - |
| 1777747133 | 26.67° C | 31% | 1017.8 hPa | - | - | - | - |
| 1777746233 | 26.67° C | 30% | 1017.7 hPa | - | - | - | - |
| 1777745333 | 27.22° C | 29% | 1017.7 hPa | - | - | - | - |
| 1777744433 | 28.33° C | 29% | 1017.6 hPa | - | - | - | - |
| 1777743533 | 28.33° C | 29% | 1017.7 hPa | - | - | - | - |
| 1777742632 | 27.78° C | 32% | 1017.7 hPa | - | - | - | - |
| 1777742062 | 26.67° C | 28% | 1017.7 hPa | - | - | - | - |
| 1777741162 | 27.22° C | 27% | 1017.8 hPa | - | - | - | - |
| 1777740262 | 28.33° C | 26% | 1018 hPa | - | - | - | - |
| 1777739362 | 28.89° C | 26% | 1018 hPa | - | - | - | - |
| 1777738462 | 29.44° C | 25% | 1018.1 hPa | - | - | - | - |
| 1777737561 | 30° C | 24% | 1018.3 hPa | - | - | - | - |
| 1777736661 | 33.89° C | 22% | 1018.5 hPa | - | - | - | - |
| 1777735761 | 37.22° C | 22% | 1018.6 hPa | - | - | - | - |
| 1777734861 | 35.56° C | 21% | 1018.7 hPa | - | - | - | - |
| 1777733961 | 37.78° C | 21% | 1018.9 hPa | - | - | - | - |
| 1777733061 | 36.11° C | 22% | 1019.1 hPa | - | - | - | - |
| 1777732161 | 38.33° C | 21% | 1019.3 hPa | - | - | - | - |
| 1777731260 | 37.78° C | 21% | 1019.6 hPa | - | - | - | - |
| 1777730360 | 36.11° C | 22% | 1019.6 hPa | - | - | - | - |
| 1777729459 | 37.78° C | 21% | 1020 hPa | - | - | - | - |
| 1777727659 | 35.56° C | 23% | 1020.3 hPa | - | - | - | - |
| 1777726759 | 34.44° C | 24% | 1020.6 hPa | - | - | - | - |
* Rain since midnight (hover to see other rain measurements)
** Current wind speed in m/s (hover to see current wind gust speed)